Regional Weather Roundup
Issued by NWS

Home | Current Version | Previous Version | Graphics & Text | Print | Product List | Glossary On
Versions: 1 2 3 4 5 6 7 8 9 10 11 12 13 14 15 16 17 18 19 20 21 22 23 24 25 26 27 28 29 30 31 32 33 34 35 36 37 38 39 40 41 42 43 44 45 46 47 48 49 50
000
ASUS43 KDMX 020007
RWRIA

WEATHER ROUNDUP FOR IOWA
NATIONAL WEATHER SERVICE DES MOINES IA
700 PM CDT FRI AUG 01 2014

NOTE: "FAIR" INDICATES FEW OR NO CLOUDS BELOW 12,000 FEET WITH NO
SIGNIFICANT WEATHER AND/OR OBSTRUCTIONS TO VISIBILITY.

* - THESE STATIONS ARE NOT NWS STATIONS...THUS NOT UNDER NWS
QUALITY CONTROL.  THEY ALSO DO NOT REPORT WEATHER SUCH
AS PRECIPITATION OR FOG.

IAZ001>003-012>014-020>022-031>034-043>046-020100-
   NORTHWEST IOWA

CITY           SKY/WX    TMP DP  RH WIND       PRES   REMARKS
CARROLL *      SUNNY     79  61  53 NE3       30.07F HX  80
CHEROKEE *     MOSUNNY   79  59  49 CALM      30.08S HX  80
DENISON *      SUNNY     79  61  53 CALM      30.06F HX  80
LE MARS *      PTSUNNY   81  57  44 CALM      30.08S HX  81
ORANGE CITY *  MOSUNNY   81  55  41 CALM      30.09S HX  80
SHELDON *      SUNNY     79  61  53 CALM      30.08S HX  80
SIOUX CITY     MOSUNNY   82  60  47 SE3       30.07S HX  82
6HR MIN TEMP:  80; 6HR MAX TEMP:  85;

SPENCER        SUNNY     81  57  43 CALM      30.08F HX  81
6HR MIN TEMP:  79; 6HR MAX TEMP:  84;

STORM LAKE *   SUNNY     79  61  53 CALM      30.09S HX  80
$$

IAZ055>058-069>071-079>083-090>094-020100-
   SOUTHWEST IOWA

CITY           SKY/WX    TMP DP  RH WIND       PRES   REMARKS
ATLANTIC *     SUNNY     79  63  57 N6        30.06S HX  80
AUDUBON *      SUNNY     82  64  54 CALM      30.09S HX  84
CLARINDA *     SUNNY     81  64  57 CALM      30.07S HX  82
COUNCIL BLFS * SUNNY     79  64  61 NE8       30.06F HX  81
CRESTON *      SUNNY     79  63  57 CALM      30.07S HX  80
HARLAN  *      SUNNY     79  64  61 NE3       30.10F HX  81
LAMONI         MOSUNNY   76  64  66 W6        30.07F
6HR MIN TEMP:  75; 6HR MAX TEMP:  83; 6HR PCP: TRACE;

RED OAK *      PTSUNNY   81  63  54 NE6       30.06F HX  82
SHENANDOAH *   SUNNY     81  64  57 CALM      30.06F HX  82
$$

IAZ047>049-059>061-072>074-084-020100-
   CENTRAL IOWA

CITY           SKY/WX    TMP DP  RH WIND       PRES   REMARKS
AMES           SUNNY     80  60  50 CALM      30.06F HX  81
6HR MIN TEMP:  79; 6HR MAX TEMP:  83;

ANKENY *       SUNNY     81  61  50 E5        30.06S HX  81
CHARITON *     SUNNY     79  63  57 N6        30.06F HX  80
DES MOINES     MOSUNNY   82  58  43 E6        30.05F HX  82
6HR MIN TEMP:  80; 6HR MAX TEMP:  85;

GRINNELL*      MOSUNNY   77  64  65 CALM      30.07S
KNOXVILLE *    SUNNY     81  59  47 N6        30.05S HX  81
MARSHALLTOWN   MOSUNNY   80  60  50 CALM      30.06S HX  81
6HR MIN TEMP:  79; 6HR MAX TEMP:  83;

PELLA *        SUNNY     81  60  49 N3        30.07S HX  81
PERRY *          N/A     79  63  57 N3        30.07R HX  80
$$

IAZ004>006-015-016-023>025-035-036-020100-
   NORTH CENTRAL IOWA

CITY           SKY/WX    TMP DP  RH WIND       PRES   REMARKS
ALGONA *       SUNNY     79  63  57 N5        30.08S HX  80
CLARION *      SUNNY     79  59  50 W3        30.07F HX  80
ESTHERVILLE    SUNNY     78  59  51 N3        30.08F
6HR MIN TEMP:  77; 6HR MAX TEMP:  81;

FORT DODGE *   SUNNY     79  61  53 CALM      30.08F HX  80
MASON CITY     SUNNY     80  61  52 NW5       30.08S HX  81
6HR MIN TEMP:  78; 6HR MAX TEMP:  83;

FOREST CITY *  MOSUNNY   79  61  53 NW6       30.08S HX  80
IOWA FALLS *     N/A     79  59  50 CALM      30.08S HX  80
$$

IAZ007>011-017>019-026>030-037>042-050>054-066-020100-
   NORTHEAST IOWA

CITY           SKY/WX    TMP DP  RH WIND       PRES   REMARKS
CEDAR RAPIDS   MOSUNNY   76  69  79 E3        30.05S
6HR MIN TEMP:  76; 6HR MAX TEMP:  83; 6HR PCP:  0.08;

CHARLES CITY * SUNNY     79  61  53 NE5       30.08R HX  80
CLINTON *      MOSUNNY   79  64  61 CALM      30.09R HX  81
DECORAH *      SUNNY     79  59  50 VRB5      30.06F HX  80
DUBUQUE        SUNNY     77  62  59 NW3       30.08R
6HR MIN TEMP:  73; 6HR MAX TEMP:  81;

MONTICELLO *   PTSUNNY   81  63  54 CALM      30.06R HX  82
OELWEIN *      SUNNY     79  64  61 NW3       30.08R HX  81
WATERLOO       SUNNY     80  60  50 NW6       30.05S HX  81
6HR MIN TEMP:  79; 6HR MAX TEMP:  84;

$$

IAZ064-065-067-068-078-020100-
   EAST CENTRAL IOWA

CITY           SKY/WX    TMP DP  RH WIND       PRES   REMARKS
DAVENPORT      MOSUNNY   80  64  58 N3        30.07R HX  82
6HR MIN TEMP:  77; 6HR MAX TEMP:  82;

IOWA CITY      MOSUNNY   81  61  50 N5        30.06S HX  82
6HR MIN TEMP:  76; 6HR MAX TEMP:  83; 6HR PCP:  0.03;

MT. PLEASANT * MOSUNNY   80  60  49 CALM      30.05S HX  81
MUSCATINE *    SUNNY     82  61  47 CALM      30.05S HX  83
QUAD CITIES    PTSUNNY   76  68  76 SW5       30.06R
6HR MIN TEMP:  76; 6HR MAX TEMP:  84;

$$

IAZ062-063-075>077-085>089-095>099-020100-
   SOUTHEAST IOWA

CITY           SKY/WX    TMP DP  RH WIND       PRES   REMARKS
BURLINGTON     PTSUNNY   76  67  73 CALM      30.05S
6HR MIN TEMP:  76; 6HR MAX TEMP:  83;

FAIRFIELD *    SUNNY     79  64  61 N3        30.06S HX  81
FORT MADISON * SUNNY     81  66  61 CALM      30.06S HX  83
KEOKUK *       SUNNY     81  64  57 CALM      30.05R HX  82
OSKALOOSA *      N/A     78  65  63 N3        30.06S HX  80
CENTERVILLE *  SUNNY     79  64  61 CALM      30.08S HX  81
OTTUMWA        SUNNY     80  60  50 N6        30.05S HX  81
6HR MIN TEMP:  79; 6HR MAX TEMP:  83;

WASHINGTON *   SUNNY     79  63  57 N5        30.06R HX  80
$$

ABBREVIATIONS USED IN REMARKS
   TC - TEMPERATURES IN CELSIUS
  WCI - WIND CHILL INDEX
   HX - HEAT INDEX
  VSB - VISIBILITY
$$



USA.gov is the U.S. government's official web portal to all federal, state and local government web resources and services.